Tracking 19909 objects as of 22-Oct-2019
HD Live streaming from Space Station
objects crossing your sky now

IRIDIUM 33 DEB

Track IRIDIUM 33 DEB now!
10-day predictions


NORAD ID: 35800
Int'l Code: 1997-051SJ
Perigee: 560.4 km
Apogee: 594.8 km
Inclination: 86.3 °
Period: 96.1 minutes
Semi major axis: 6948 km
RCS: 0.0103 m2 (small)
Launch date: September 14, 1997
Source: United States (US)
Launch site: TYURATAM MISSILE AND SPACE COMPLEX (TTMTR)

Note: This is SATELLITE DEBRIS
aabbcc
Your satellite tracking list
Your tracking list is empty




NASA's NSSDC Master Catalog

Two Line Element Set (TLE):
1 35800U 97051SJ  19294.33478282  .00004902  00000-0  40128-3 0  9993
2 35800  86.2618 140.8070 0024717  90.5874 269.8190 14.98848750560429
Source of the keplerian elements: AFSPC